QPF
0.01 0.01 0.02 0.02 0.03 0.04 0.04 0.05 0.02 0.03 0.02 0.01 0.02 0.03 0.04 0.03 0.02 0.04 0.04 0.04 0.04 0.05 0.05 0.04 0.04 0.04 0.04 0.04 0.03 0.03 0.02 0.01 0.02 0.02 0.03 0.05 0.04 0.02 0.01 0.01 0.01 0.01 0.01
0.01 0.01 0.01 0.02 0.03 0.03 0.05 0.05 0.04 0.04 0.03 0.02 0.02 0.02 0.03 0.03 0.04 0.05 0.05 0.06 0.05 0.05 0.07 0.07 0.06 0.04 0.04 0.04 0.03 0.03 0.03 0.02 0.02 0.02 0.02 0.03 0.03 0.02 0.01 0.02 0.02 0.02 0.02
0.02 0.02 0.03 0.03 0.04 0.05 0.06 0.07 0.07 0.05 0.05 0.04 0.04 0.05 0.07 0.07 0.05 0.05 0.06 0.09 0.07 0.04 0.05 0.06 0.06 0.05 0.06 0.06 0.05 0.05 0.04 0.04 0.03 0.02 0.02 0.02 0.02 0.02 0.02 0.02 0.02 0.02 0.01
0.03 0.04 0.04 0.04 0.04 0.06 0.07 0.07 0.06 0.06 0.06 0.08 0.09 0.09 0.09 0.10 0.07 0.06 0.07 0.07 0.06 0.04 0.04 0.04 0.04 0.04 0.04 0.07 0.08 0.06 0.05 0.05 0.04 0.03 0.02 0.02 0.02 0.02 0.02 0.02 0.02 0.02 0.01
0.04 0.05 0.05 0.05 0.05 0.07 0.07 0.05 0.06 0.05 0.07 0.10 0.08 0.08 0.07 0.07 0.06 0.07 0.06 0.05 0.03 0.03 0.04 0.03 0.02 0.03 0.03 0.05 0.08 0.08 0.06 0.04 0.03 0.03 0.03 0.03 0.02 0.02 0.02 0.01 0.01 0.01 0.01
0.05 0.07 0.06 0.07 0.08 0.08 0.08 0.07 0.08 0.06 0.07 0.08 0.06 0.07 0.06 0.04 0.04 0.05 0.05 0.04 0.04 0.02 0.01 0.02 0.03 0.02 0.02 0.04 0.07 0.06 0.05 0.04 0.04 0.04 0.03 0.03 0.02 0.02 0.02 0.02 0.01 0.01 0.01
0.06 0.07 0.10 0.09 0.09 0.10 0.08 0.07 0.07 0.06 0.06 0.07 0.10 0.08 0.05 0.03 0.04 0.04 0.04 0.06 0.04 0.03 0.03 0.03 0.04 0.06 0.04 0.02 0.02 0.02 0.04 0.05 0.05 0.04 0.03 0.03 0.03 0.03 0.02 0.03 0.02 0.01 0.01
0.07 0.07 0.11 0.11 0.10 0.11 0.10 0.07 0.08 0.08 0.06 0.07 0.08 0.09 0.07 0.05 0.04 0.03 0.04 0.06 0.04 0.04 0.03 0.02 0.03 0.05 0.05 0.07 0.03 0.01 0.02 0.03 0.05 0.04 0.03 0.02 0.02 0.02 0.02 0.02 0.02 0.01 0.01
0.08 0.08 0.09 0.10 0.10 0.08 0.08 0.08 0.08 0.09 0.08 0.06 0.04 0.05 0.04 0.04 0.04 0.04 0.02 0.02 0.03 0.03 0.02 0.02 0.02 0.03 0.04 0.06 0.06 0.02 0.01 0.02 0.03 0.04 0.04 0.03 0.02 0.01 0.01 0.02 0.02 0.02 0.02
0.10 0.10 0.10 0.11 0.10 0.08 0.09 0.08 0.06 0.09 0.11 0.07 0.04 0.03 0.02 0.02 0.04 0.04 0.03 0.01 0.01 0.03 0.03 0.01 0.01 0.04 0.03 0.04 0.04 0.01 0.01 0.01 0.01 0.03 0.05 0.05 0.03 0.02 0.01 0.02 0.03 0.03 0.03
0.09 0.10 0.12 0.13 0.11 0.08 0.09 0.08 0.07 0.07 0.08 0.07 0.05 0.03 0.02 0.02 0.03 0.04 0.04 0.03 0.02 0.01 0.01 0.01 0.01 0.02 0.02 0.03 0.04 0.01 0.00 0.00 0.00 0.01 0.02 0.03 0.03 0.02 0.02 0.02 0.03 0.04 0.03
0.08 0.09 0.10 0.10 0.09 0.07 0.08 0.08 0.08 0.09 0.08 0.07 0.06 0.04 0.03 0.02 0.01 0.03 0.03 0.03 0.03 0.02 0.01 0.01 0.02 0.01 0.01 0.01 0.01 0.00 0.00 0.00 0.00 0.00 0.00 0.00 0.01 0.01 0.02 0.02 0.02 0.02 0.02
0.07 0.07 0.07 0.07 0.07 0.07 0.07 0.08 0.08 0.08 0.07 0.07 0.06 0.04 0.02 0.02 0.01 0.01 0.01 0.01 0.02 0.01 0.01 0.02 0.01 0.01 0.01 0.01 0.02 0.00 0.00 0.00 0.00 0.00 0.00 0.00 0.00 0.00 0.01 0.01 0.01 0.02 0.02
0.08 0.08 0.07 0.08 0.07 0.07 0.07 0.10 0.08 0.07 0.06 0.06 0.04 0.05 0.04 0.02 0.02 0.01 0.01 0.02 0.03 0.03 0.03 0.02 0.00 0.00 0.00 0.01 0.01 0.00 0.00 0.00 0.00 0.00 0.00 0.00 0.00 0.00 0.00 0.00 0.00 0.01 0.01
0.07 0.08 0.09 0.07 0.08 0.09 0.10 0.10 0.10 0.09 0.07 0.06 0.05 0.06 0.05 0.03 0.03 0.02 0.01 0.02 0.03 0.04 0.04 0.03 0.02 0.00 0.01 0.02 0.01 0.01 0.02 0.01 0.00 0.00 0.00 0.00 0.00 0.00 0.00 0.00 0.00 0.01 0.00
0.09 0.09 0.09 0.09 0.08 0.08 0.08 0.09 0.09 0.09 0.08 0.07 0.07 0.07 0.06 0.04 0.04 0.03 0.03 0.02 0.03 0.03 0.03 0.02 0.02 0.01 0.01 0.01 0.01 0.01 0.01 0.01 0.00 0.00 0.00 0.00 0.00 0.00 0.00 0.00 0.00 0.00 0.00
0.11 0.10 0.10 0.10 0.09 0.08 0.07 0.08 0.07 0.07 0.08 0.08 0.07 0.06 0.06 0.05 0.05 0.04 0.04 0.03 0.03 0.03 0.03 0.02 0.01 0.01 0.01 0.02 0.02 0.02 0.01 0.01 0.01 0.01 0.00 0.01 0.01 0.01 0.01 0.01 0.01 0.01 0.00
0.11 0.10 0.10 0.10 0.09 0.08 0.08 0.07 0.07 0.06 0.06 0.07 0.07 0.07 0.07 0.05 0.04 0.04 0.04 0.03 0.03 0.03 0.02 0.02 0.02 0.01 0.03 0.03 0.03 0.04 0.02 0.01 0.01 0.01 0.00 0.00 0.00 0.00 0.00 0.00 0.00 0.00 0.00
0.11 0.09 0.09 0.09 0.08 0.07 0.07 0.07 0.07 0.07 0.06 0.08 0.09 0.08 0.07 0.06 0.06 0.05 0.05 0.04 0.05 0.04 0.04 0.03 0.04 0.04 0.04 0.04 0.03 0.03 0.02 0.03 0.02 0.01 0.00 0.00 0.00 0.00 0.00 0.00 0.00 0.00 0.00
0.11 0.10 0.09 0.10 0.10 0.09 0.08 0.08 0.08 0.08 0.08 0.08 0.08 0.07 0.06 0.06 0.06 0.06 0.05 0.05 0.06 0.06 0.05 0.04 0.04 0.04 0.04 0.03 0.03 0.02 0.02 0.02 0.02 0.01 0.01 0.00 0.00 0.00 0.00 0.00 0.00 0.00 0.00
0.11 0.11 0.10 0.11 0.10 0.10 0.08 0.09 0.08 0.08 0.09 0.09 0.08 0.06 0.05 0.05 0.05 0.05 0.04 0.06 0.06 0.05 0.06 0.06 0.06 0.05 0.05 0.05 0.04 0.03 0.03 0.02 0.02 0.02 0.01 0.01 0.01 0.01 0.00 0.00 0.00 0.00 0.01
0.17 0.15 0.14 0.12 0.11 0.09 0.08 0.09 0.10 0.09 0.09 0.08 0.07 0.07 0.06 0.05 0.05 0.04 0.03 0.03 0.04 0.05 0.06 0.07 0.07 0.07 0.06 0.06 0.05 0.04 0.04 0.04 0.03 0.02 0.03 0.02 0.02 0.02 0.02 0.02 0.02 0.01 0.01
0.21 0.20 0.16 0.13 0.11 0.10 0.09 0.09 0.10 0.11 0.11 0.10 0.10 0.08 0.06 0.05 0.06 0.06 0.06 0.05 0.04 0.04 0.04 0.05 0.06 0.07 0.07 0.07 0.07 0.07 0.06 0.05 0.04 0.04 0.04 0.02 0.03 0.03 0.02 0.02 0.01 0.01 0.01
0.21 0.20 0.18 0.16 0.14 0.13 0.11 0.10 0.10 0.11 0.13 0.14 0.12 0.11 0.10 0.09 0.08 0.08 0.08 0.07 0.06 0.07 0.07 0.06 0.06 0.08 0.07 0.07 0.05 0.04 0.04 0.03 0.03 0.03 0.04 0.03 0.02 0.03 0.02 0.02 0.01 0.01 0.01
0.18 0.18 0.20 0.17 0.15 0.16 0.15 0.13 0.12 0.11 0.14 0.15 0.16 0.14 0.11 0.10 0.10 0.10 0.09 0.09 0.09 0.09 0.07 0.06 0.05 0.04 0.03 0.03 0.02 0.02 0.02 0.03 0.03 0.03 0.03 0.03 0.02 0.03 0.02 0.02 0.01 0.01 0.01
0.17 0.20 0.20 0.18 0.15 0.14 0.14 0.13 0.13 0.12 0.12 0.13 0.16 0.18 0.18 0.16 0.14 0.12 0.10 0.09 0.07 0.05 0.04 0.04 0.03 0.02 0.02 0.03 0.03 0.02 0.03 0.04 0.05 0.05 0.04 0.04 0.03 0.02 0.02 0.02 0.02 0.02 0.02
MSLP
1017.19 1017.40 1017.56 1017.67 1017.76 1017.85 1017.94 1018.05 1018.16 1018.27 1018.35 1018.41 1018.47 1018.52 1018.61 1018.76 1018.99 1019.31 1019.70 1020.13 1020.57 1020.97 1021.31 1021.57 1021.75 1021.87 1021.94 1021.98 1022.03 1022.08 1022.14 1022.21 1022.28 1022.33 1022.39 1022.44 1022.50 1022.57 1022.66 1022.76 1022.86 1022.95 1023.02
1017.26 1017.47 1017.63 1017.74 1017.83 1017.91 1017.99 1018.09 1018.21 1018.33 1018.45 1018.56 1018.66 1018.76 1018.87 1019.03 1019.24 1019.51 1019.83 1020.19 1020.57 1020.93 1021.25 1021.53 1021.75 1021.91 1022.03 1022.12 1022.19 1022.24 1022.28 1022.31 1022.34 1022.36 1022.39 1022.43 1022.48 1022.55 1022.64 1022.74 1022.84 1022.92 1022.98
1017.27 1017.51 1017.69 1017.82 1017.93 1018.02 1018.11 1018.22 1018.35 1018.50 1018.65 1018.79 1018.93 1019.06 1019.19 1019.34 1019.51 1019.72 1019.96 1020.23 1020.53 1020.83 1021.12 1021.40 1021.64 1021.84 1022.01 1022.14 1022.24 1022.31 1022.34 1022.36 1022.36 1022.35 1022.35 1022.37 1022.41 1022.47 1022.56 1022.65 1022.75 1022.82 1022.88
1017.20 1017.48 1017.70 1017.89 1018.03 1018.15 1018.27 1018.40 1018.55 1018.71 1018.88 1019.05 1019.22 1019.37 1019.51 1019.64 1019.77 1019.90 1020.06 1020.24 1020.45 1020.67 1020.92 1021.17 1021.41 1021.65 1021.86 1022.03 1022.17 1022.26 1022.31 1022.33 1022.32 1022.30 1022.28 1022.28 1022.31 1022.36 1022.44 1022.52 1022.61 1022.68 1022.73
1017.04 1017.37 1017.65 1017.90 1018.10 1018.27 1018.42 1018.57 1018.73 1018.90 1019.09 1019.27 1019.45 1019.61 1019.75 1019.86 1019.95 1020.03 1020.11 1020.20 1020.31 1020.46 1020.64 1020.85 1021.09 1021.33 1021.57 1021.79 1021.97 1022.10 1022.18 1022.22 1022.22 1022.21 1022.19 1022.18 1022.20 1022.24 1022.30 1022.37 1022.45 1022.51 1022.56
1016.81 1017.19 1017.54 1017.84 1018.10 1018.32 1018.51 1018.68 1018.85 1019.02 1019.21 1019.39 1019.57 1019.74 1019.87 1019.97 1020.03 1020.07 1020.08 1020.09 1020.13 1020.19 1020.31 1020.47 1020.67 1020.92 1021.17 1021.42 1021.64 1021.82 1021.95 1022.04 1022.08 1022.08 1022.08 1022.08 1022.09 1022.11 1022.16 1022.22 1022.28 1022.34 1022.39
1016.57 1016.97 1017.36 1017.72 1018.02 1018.28 1018.50 1018.68 1018.85 1019.02 1019.19 1019.37 1019.55 1019.71 1019.85 1019.95 1020.00 1020.01 1019.98 1019.94 1019.91 1019.90 1019.94 1020.04 1020.20 1020.42 1020.67 1020.94 1021.20 1021.43 1021.62 1021.77 1021.86 1021.91 1021.93 1021.95 1021.96 1021.98 1022.01 1022.06 1022.11 1022.16 1022.21
1016.33 1016.74 1017.15 1017.53 1017.87 1018.15 1018.39 1018.58 1018.74 1018.90 1019.06 1019.22 1019.39 1019.56 1019.70 1019.81 1019.86 1019.87 1019.82 1019.75 1019.67 1019.60 1019.57 1019.60 1019.70 1019.88 1020.11 1020.38 1020.67 1020.95 1021.19 1021.40 1021.56 1021.67 1021.73 1021.77 1021.80 1021.81 1021.84 1021.87 1021.91 1021.96 1022.01
1016.13 1016.51 1016.90 1017.29 1017.64 1017.93 1018.18 1018.37 1018.53 1018.67 1018.81 1018.97 1019.13 1019.30 1019.45 1019.58 1019.66 1019.68 1019.64 1019.55 1019.43 1019.31 1019.22 1019.18 1019.21 1019.33 1019.52 1019.77 1020.06 1020.37 1020.67 1020.93 1021.16 1021.32 1021.44 1021.52 1021.56 1021.58 1021.60 1021.62 1021.66 1021.70 1021.76
1015.93 1016.27 1016.63 1017.00 1017.34 1017.64 1017.89 1018.09 1018.24 1018.38 1018.51 1018.66 1018.82 1018.99 1019.17 1019.32 1019.42 1019.47 1019.45 1019.36 1019.23 1019.07 1018.92 1018.81 1018.76 1018.80 1018.93 1019.13 1019.41 1019.72 1020.05 1020.37 1020.64 1020.86 1021.03 1021.14 1021.21 1021.25 1021.27 1021.29 1021.32 1021.37 1021.43
1015.72 1015.99 1016.32 1016.66 1016.99 1017.29 1017.55 1017.75 1017.92 1018.06 1018.19 1018.34 1018.50 1018.69 1018.88 1019.05 1019.19 1019.27 1019.27 1019.20 1019.06 1018.87 1018.67 1018.49 1018.36 1018.32 1018.37 1018.51 1018.74 1019.04 1019.37 1019.70 1020.02 1020.28 1020.49 1020.65 1020.74 1020.80 1020.83 1020.86 1020.90 1020.95 1021.02
1015.42 1015.65 1015.94 1016.26 1016.59 1016.90 1017.17 1017.40 1017.58 1017.73 1017.88 1018.03 1018.20 1018.40 1018.60 1018.80 1018.97 1019.08 1019.10 1019.05 1018.91 1018.71 1018.47 1018.23 1018.03 1017.90 1017.87 1017.93 1018.10 1018.35 1018.65 1018.98 1019.31 1019.60 1019.84 1020.02 1020.15 1020.23 1020.29 1020.33 1020.38 1020.44 1020.52
1015.02 1015.23 1015.50 1015.81 1016.15 1016.47 1016.77 1017.02 1017.24 1017.41 1017.58 1017.74 1017.92 1018.12 1018.33 1018.54 1018.73 1018.87 1018.93 1018.89 1018.77 1018.57 1018.31 1018.03 1017.77 1017.56 1017.44 1017.42 1017.51 1017.69 1017.94 1018.24 1018.55 1018.84 1019.10 1019.30 1019.46 1019.57 1019.65 1019.72 1019.78 1019.86 1019.96
1014.51 1014.72 1014.99 1015.32 1015.67 1016.02 1016.35 1016.64 1016.89 1017.09 1017.27 1017.45 1017.63 1017.83 1018.05 1018.26 1018.46 1018.62 1018.71 1018.70 1018.60 1018.42 1018.16 1017.86 1017.56 1017.30 1017.11 1017.00 1017.00 1017.10 1017.28 1017.52 1017.79 1018.06 1018.31 1018.53 1018.70 1018.84 1018.95 1019.05 1019.13 1019.23 1019.33
1013.89 1014.13 1014.44 1014.79 1015.17 1015.56 1015.93 1016.25 1016.53 1016.75 1016.95 1017.13 1017.31 1017.51 1017.72 1017.93 1018.14 1018.31 1018.42 1018.45 1018.39 1018.23 1018.00 1017.71 1017.40 1017.10 1016.85 1016.68 1016.60 1016.61 1016.70 1016.86 1017.07 1017.30 1017.52 1017.73 1017.92 1018.07 1018.21 1018.33 1018.44 1018.56 1018.67
1013.23 1013.52 1013.87 1014.26 1014.68 1015.10 1015.49 1015.85 1016.14 1016.39 1016.60 1016.78 1016.96 1017.14 1017.34 1017.54 1017.75 1017.93 1018.06 1018.13 1018.11 1018.00 1017.81 1017.56 1017.26 1016.96 1016.69 1016.46 1016.31 1016.23 1016.24 1016.31 1016.44 1016.60 1016.78 1016.96 1017.13 1017.29 1017.44 1017.58 1017.71 1017.84 1017.96
1012.58 1012.93 1013.33 1013.77 1014.22 1014.66 1015.07 1015.44 1015.75 1016.01 1016.21 1016.40 1016.56 1016.73 1016.92 1017.11 1017.31 1017.49 1017.65 1017.75 1017.77 1017.72 1017.59 1017.39 1017.14 1016.87 1016.59 1016.34 1016.13 1015.98 1015.90 1015.88 1015.92 1015.99 1016.10 1016.23 1016.37 1016.52 1016.66 1016.80 1016.93 1017.06 1017.18
1011.98 1012.40 1012.85 1013.32 1013.79 1014.24 1014.66 1015.03 1015.35 1015.61 1015.82 1016.00 1016.16 1016.33 1016.50 1016.68 1016.87 1017.06 1017.22 1017.35 1017.42 1017.42 1017.36 1017.22 1017.03 1016.80 1016.54 1016.29 1016.05 1015.85 1015.69 1015.58 1015.51 1015.49 1015.51 1015.57 1015.65 1015.75 1015.86 1015.98 1016.11 1016.22 1016.32
1011.47 1011.93 1012.42 1012.91 1013.39 1013.85 1014.27 1014.64 1014.96 1015.22 1015.44 1015.62 1015.79 1015.96 1016.13 1016.30 1016.49 1016.67 1016.84 1016.98 1017.09 1017.14 1017.13 1017.06 1016.93 1016.75 1016.53 1016.29 1016.05 1015.81 1015.59 1015.39 1015.23 1015.11 1015.02 1014.98 1014.98 1015.01 1015.07 1015.14 1015.23 1015.32 1015.39
1011.04 1011.54 1012.04 1012.55 1013.03 1013.49 1013.90 1014.27 1014.59 1014.87 1015.11 1015.32 1015.51 1015.69 1015.86 1016.04 1016.22 1016.40 1016.56 1016.70 1016.82 1016.90 1016.93 1016.91 1016.84 1016.72 1016.55 1016.34 1016.10 1015.84 1015.57 1015.30 1015.05 1014.83 1014.63 1014.48 1014.38 1014.31 1014.29 1014.30 1014.33 1014.38 1014.41
1010.68 1011.19 1011.71 1012.21 1012.70 1013.15 1013.56 1013.94 1014.28 1014.58 1014.85 1015.11 1015.33 1015.55 1015.75 1015.94 1016.11 1016.28 1016.43 1016.55 1016.66 1016.74 1016.79 1016.80 1016.77 1016.70 1016.57 1016.40 1016.18 1015.92 1015.62 1015.30 1014.97 1014.65 1014.35 1014.09 1013.87 1013.70 1013.58 1013.50 1013.46 1013.44 1013.43
1010.38 1010.90 1011.42 1011.92 1012.40 1012.85 1013.28 1013.67 1014.04 1014.39 1014.72 1015.02 1015.31 1015.57 1015.81 1016.01 1016.19 1016.34 1016.46 1016.55 1016.63 1016.69 1016.73 1016.74 1016.73 1016.69 1016.60 1016.46 1016.27 1016.02 1015.71 1015.36 1014.98 1014.58 1014.19 1013.82 1013.48 1013.20 1012.97 1012.80 1012.67 1012.58 1012.51
1010.16 1010.68 1011.20 1011.71 1012.19 1012.65 1013.09 1013.51 1013.92 1014.32 1014.71 1015.08 1015.43 1015.75 1016.03 1016.26 1016.43 1016.56 1016.65 1016.70 1016.73 1016.74 1016.75 1016.74 1016.73 1016.70 1016.63 1016.52 1016.36 1016.13 1015.82 1015.46 1015.04 1014.59 1014.12 1013.67 1013.24 1012.85 1012.52 1012.25 1012.03 1011.85 1011.71
1010.08 1010.60 1011.13 1011.64 1012.13 1012.60 1013.06 1013.51 1013.96 1014.41 1014.86 1015.29 1015.70 1016.07 1016.39 1016.64 1016.82 1016.92 1016.97 1016.97 1016.94 1016.89 1016.84 1016.80 1016.76 1016.72 1016.66 1016.57 1016.43 1016.22 1015.93 1015.57 1015.15 1014.66 1014.16 1013.64 1013.13 1012.67 1012.25 1011.88 1011.58 1011.32 1011.10
1010.21 1010.74 1011.27 1011.78 1012.28 1012.77 1013.24 1013.71 1014.18 1014.67 1015.16 1015.64 1016.09 1016.50 1016.85 1017.11 1017.28 1017.37 1017.37 1017.32 1017.23 1017.12 1017.01 1016.91 1016.84 1016.77 1016.70 1016.61 1016.48 1016.29 1016.03 1015.68 1015.26 1014.78 1014.25 1013.70 1013.16 1012.64 1012.15 1011.71 1011.33 1011.00 1010.71
1010.61 1011.15 1011.69 1012.22 1012.72 1013.20 1013.67 1014.14 1014.62 1015.11 1015.61 1016.10 1016.57 1017.00 1017.35 1017.61 1017.78 1017.84 1017.82 1017.72 1017.57 1017.40 1017.23 1017.08 1016.95 1016.85 1016.75 1016.65 1016.52 1016.34 1016.09 1015.77 1015.37 1014.91 1014.39 1013.84 1013.27 1012.72 1012.20 1011.71 1011.27 1010.87 1010.50
Thickness
5754 5752 5750 5749 5750 5748 5746 5745 5745 5743 5742 5741 5742 5741 5741 5741 5741 5739 5734 5729 5726 5724 5722 5721 5719 5718 5717 5716 5714 5713 5712 5712 5711 5710 5709 5708 5707 5706 5706 5705 5704 5703 5703
5752 5750 5748 5747 5748 5747 5747 5745 5745 5743 5743 5743 5742 5741 5741 5741 5738 5737 5736 5731 5727 5725 5723 5721 5720 5718 5717 5716 5714 5713 5712 5711 5710 5709 5708 5707 5707 5706 5705 5704 5703 5702 5702
5749 5749 5749 5747 5747 5746 5744 5743 5742 5743 5742 5743 5741 5741 5741 5739 5739 5736 5736 5734 5731 5727 5724 5722 5720 5719 5717 5716 5715 5713 5712 5711 5710 5709 5708 5707 5706 5705 5704 5704 5703 5702 5701
5747 5746 5747 5747 5745 5745 5745 5744 5744 5744 5743 5743 5741 5741 5741 5739 5738 5737 5737 5735 5734 5734 5728 5724 5722 5720 5718 5717 5716 5714 5713 5712 5710 5709 5708 5707 5706 5706 5705 5704 5703 5702 5701
5746 5745 5746 5746 5744 5745 5745 5746 5745 5745 5743 5741 5742 5741 5742 5741 5740 5740 5739 5738 5736 5734 5733 5727 5724 5722 5720 5719 5717 5716 5714 5713 5712 5710 5709 5708 5707 5706 5705 5704 5703 5702 5701
5745 5745 5745 5744 5745 5745 5744 5744 5742 5741 5742 5741 5743 5743 5742 5743 5742 5742 5741 5740 5738 5737 5736 5733 5729 5726 5723 5721 5719 5718 5716 5715 5713 5712 5710 5710 5708 5707 5706 5705 5704 5703 5701
5745 5743 5746 5744 5743 5744 5744 5744 5742 5740 5741 5742 5739 5737 5741 5744 5744 5743 5743 5742 5742 5739 5737 5735 5733 5731 5728 5724 5722 5720 5718 5717 5715 5714 5712 5711 5710 5708 5707 5706 5705 5704 5703
5745 5745 5744 5744 5744 5743 5742 5742 5740 5741 5742 5742 5738 5734 5733 5737 5739 5746 5744 5742 5743 5742 5740 5738 5735 5732 5731 5730 5727 5723 5721 5719 5717 5716 5714 5713 5711 5710 5709 5707 5706 5705 5704
5745 5745 5744 5744 5744 5744 5743 5741 5741 5739 5738 5741 5743 5738 5734 5731 5738 5743 5744 5745 5744 5743 5742 5742 5738 5736 5733 5732 5731 5727 5724 5722 5720 5718 5716 5715 5713 5712 5710 5709 5707 5706 5705
5745 5745 5744 5743 5743 5745 5744 5742 5743 5742 5739 5739 5740 5741 5742 5741 5734 5735 5741 5746 5744 5742 5743 5744 5743 5740 5737 5735 5732 5730 5726 5724 5722 5720 5718 5716 5715 5713 5711 5710 5709 5707 5706
5744 5744 5744 5744 5743 5744 5744 5743 5743 5742 5742 5741 5741 5741 5739 5738 5739 5734 5734 5740 5743 5745 5745 5744 5744 5743 5740 5738 5735 5733 5729 5726 5723 5721 5719 5718 5716 5714 5712 5711 5709 5708 5707
5743 5744 5744 5744 5743 5745 5744 5743 5742 5741 5742 5742 5742 5742 5740 5738 5738 5738 5735 5736 5739 5744 5746 5746 5745 5744 5742 5740 5738 5735 5730 5727 5724 5722 5720 5718 5716 5715 5713 5711 5710 5708 5707
5743 5744 5745 5743 5744 5744 5744 5743 5742 5742 5741 5739 5739 5741 5742 5743 5744 5742 5738 5738 5738 5742 5743 5745 5746 5745 5743 5741 5739 5734 5731 5728 5725 5723 5721 5719 5716 5715 5713 5711 5710 5708 5706
5745 5745 5743 5743 5742 5743 5743 5742 5743 5742 5740 5739 5740 5739 5740 5742 5743 5742 5740 5737 5733 5737 5740 5742 5746 5745 5743 5741 5739 5733 5732 5728 5725 5723 5721 5718 5716 5714 5713 5711 5709 5707 5705
5744 5743 5742 5741 5741 5741 5741 5741 5741 5740 5739 5738 5739 5737 5737 5740 5740 5741 5741 5739 5733 5729 5733 5739 5740 5743 5741 5739 5736 5733 5732 5728 5725 5722 5720 5717 5715 5713 5711 5709 5707 5706 5704
5742 5741 5740 5740 5739 5739 5739 5738 5738 5738 5737 5736 5736 5735 5735 5737 5738 5738 5738 5738 5737 5732 5730 5738 5738 5741 5737 5737 5733 5731 5730 5726 5723 5721 5718 5716 5713 5711 5709 5707 5705 5703 5702
5739 5739 5738 5737 5737 5737 5737 5736 5736 5736 5734 5734 5733 5732 5731 5732 5733 5734 5734 5734 5733 5731 5727 5732 5736 5736 5730 5728 5729 5727 5726 5724 5724 5720 5716 5713 5711 5709 5707 5705 5703 5701 5699
5738 5737 5736 5735 5735 5735 5734 5734 5732 5733 5732 5730 5730 5729 5728 5729 5727 5729 5730 5730 5729 5728 5725 5723 5727 5728 5725 5724 5722 5720 5722 5723 5721 5718 5714 5710 5708 5705 5703 5702 5700 5698 5696
5736 5735 5734 5733 5732 5732 5732 5731 5730 5729 5728 5728 5727 5725 5724 5723 5722 5723 5722 5724 5724 5725 5722 5720 5720 5721 5721 5720 5717 5716 5717 5715 5715 5714 5710 5707 5704 5702 5699 5697 5695 5693 5691
5733 5732 5731 5731 5730 5729 5729 5728 5727 5725 5724 5723 5722 5721 5720 5719 5718 5718 5717 5716 5717 5716 5715 5713 5714 5714 5712 5713 5710 5709 5709 5710 5709 5709 5707 5703 5700 5697 5695 5693 5690 5688 5686
5731 5730 5728 5727 5727 5726 5725 5724 5722 5721 5718 5717 5717 5716 5715 5714 5713 5712 5713 5711 5710 5709 5709 5707 5706 5706 5705 5702 5701 5702 5700 5701 5701 5701 5699 5698 5696 5695 5692 5688 5685 5682 5679
5726 5725 5724 5723 5722 5721 5719 5717 5716 5715 5713 5711 5710 5710 5710 5708 5705 5703 5703 5702 5701 5700 5700 5698 5698 5695 5694 5694 5692 5692 5691 5690 5689 5694 5689 5689 5689 5688 5686 5683 5680 5676 5671
5719 5718 5717 5716 5714 5712 5711 5710 5708 5708 5707 5705 5704 5704 5705 5706 5702 5701 5697 5694 5693 5690 5689 5689 5689 5687 5685 5684 5681 5681 5679 5678 5677 5680 5678 5677 5680 5678 5677 5675 5671 5666 5662
5712 5711 5710 5708 5707 5704 5703 5702 5701 5701 5701 5699 5698 5697 5697 5695 5694 5692 5692 5690 5688 5685 5683 5681 5680 5677 5676 5673 5671 5670 5669 5669 5670 5670 5667 5665 5668 5667 5667 5664 5659 5656 5651
5705 5703 5702 5700 5698 5695 5694 5694 5693 5695 5693 5691 5689 5688 5687 5684 5681 5680 5681 5679 5678 5675 5672 5669 5666 5664 5662 5660 5658 5659 5660 5659 5659 5659 5658 5653 5654 5653 5653 5652 5649 5644 5640
5700 5697 5694 5691 5690 5687 5684 5684 5685 5688 5685 5682 5679 5677 5673 5671 5670 5669 5671 5669 5667 5664 5663 5661 5657 5654 5653 5651 5647 5646 5646 5645 5645 5644 5644 5639 5638 5637 5637 5639 5636 5631 5628